BREEZE-M R/B, 40506

Orbit data source: Space-Track

BREEZE-M R/B, 40506 is space debris in HEO originally from a launch on Wed, 18 Mar 2015 UTC launched from the Tyuratam Missile And Space Complex (TTMTR). Debris objects in space refer to the collection of defunct objects orbiting the Earth. Examples of debris include non-operational satellites, rocket bodies, and fragments generated from explosions, collisions, or faulty payload assembly.

Loading next visibility...
Identifier
40506, 2015-012B
Orbit
HEO
Country
Flag of CISCIS
Related business
Manufacturer
Khrunichev
Mission
Spacecraft
Bus & Motor
BRIZ, Unknown motor
Mass
~1,600 kg wet, 1,600 kg dry
Launch date (UTC)
2015-03-18 (11 years ago)
Launch vehicle
Unknown
Launch site
Tyuratam Missile And Space Complex (TTMTR)
Object type
Payload
Rocket body
Debris
Shape & HBR
Cyl, 2.0 m
Radar Cross Section
15.135 m², Large (>1 m²)

Expand to show TLE details & history
Last TLE update: 2 days ago

TLE from 2 days ago
0 BREEZE-M R/B
1 40506U 15012B   26171.24961990 -.00000005  00000-0  00000+0 0  9996
2 40506  19.7584 181.7842 5797655 174.9656 195.4202  2.11099117 86811
Epoch: 2026-06-20T05:59Z
TLE epoch observation values (Epoch: 2026-06-20T05:59:27.159Z)
Latitude
-0.00007°
Longitude
-176.53575°
Altitude
33,935.342 km
Speed
2.061 km/s
True Right ascension
12h 07m 10s
True Declination
0° 00' 00"
Sunlit
Object was in daylight at epoch
Visualization orbit readout
Latitude
Unknown
Longitude
Unknown
Altitude
Unknown
Speed
Unknown
Apparent Right ascension
Unknown
Apparent Declination
Unknown
Sunlit
N/A
Visualization observer readout
Local Sidereal Time
21:42:06
Azimuth
Unknown
Elevation
Unknown
Doppler factor
Unknown
Orbital elements
Apogee altitude
34,177.223 km
Perigee altitude
4,410.022 km
Semi-major axis
25,671.759 km
Eccentricity
0.57977
Inclination
19.7584°
RAAN
181.7842°
Arg. of periapsis
174.9656°
True anomaly
185.05236°
Mean anomaly
195.4202°
Eccentric anomaly
189.77846°
Mean motion
0.52767 °/min
Orbital period
682.25 mins
BSTAR
0
Loading maneuver chart data...
Computing Atmospheric mass density...
Loading historical data...
Loading historical data...
Loading historical data...
Loading historical data...
Loading historical data...
Loading historical data...
Loading historical data...
Other satellites on launch #12 in the year 2015 (2015-03-18 UTC)

Documentation

Showing up to 5 results
|